Home > Weather > Vaduz > Past weeks

Flag for Liechtenstein Weather for the Past 2 Weeks in Vaduz, Liechtenstein

Now
48 °F

Cool.


Feels Like: 48 °F
Forecast: 41 / 60 °F
Wind: 2 mph from Northwest

Location: Vaduz

Current Time: May 3, 2016 at 6:55:52 PM

Latest Report: May 3, 2016 at 6:00 PM


Visibility: N/A

Pressure: 30.22 "Hg

Humidity: 93%

Dew Point: 46 °F

Location of VaduzLocation

Historic Weather in Vaduz — Graph

°F

Vaduz Temperature Yesterday

Maximum temperature yesterday: 53 °F (at 5:00 PM)
Minimum temperature yesterday: 43 °F (at 12:00 AM)
Average temperature yesterday: 48 °F

High & Low Weather Summary for the Past Weeks

 TemperatureHumidityPressure
High67 °F (Apr 21, 6:00 PM)95% (Apr 19, 2:00 AM)30.40 "Hg (Apr 19, 2:00 AM)
Low33 °F (Apr 25, 3:00 AM)30% (Apr 28, 4:00 PM)29.64 "Hg (Apr 26, 3:00 PM)
Average49 °F69%30.02 "Hg
* Reported Apr 18 5:00 PM — May 3 5:00 PM, Vaduz, Weather by CustomWeather, © 2016

Note: Actual official high and low records may vary slightly from our data, if they occured in-between our weather recording intervals... More about our weather records

Advertising

Vaduz Weather History for the Previous 24 Hours

Scroll right to see more
 ConditionsComfort  
Time TempWeatherWind HumidityBarometerVisibility
5:00 PM
Tue, May 3
50 °FLight rain. Overcast.5 mph81%30.17 "Hg3 mi
4:00 PM58 °FRefreshingly cool.9 mph55%30.10 "HgN/A
3:00 PM60 °FRefreshingly cool.2 mph48%30.07 "HgN/A
2:00 PM61 °FFog.7 mph50%30.08 "Hg2 mi
1:00 PM57 °FCool.6 mph70%30.11 "HgN/A
12:00 PM53 °FCool.7 mph77%30.16 "HgN/A
11:00 AM50 °FFog.3 mph84%30.17 "Hg2 mi
10:00 AM48 °FCool.7 mph85%30.19 "HgN/A
8:00 AM46 °FFog.1 mph91%30.18 "Hg3 mi
7:00 AM47 °FCool.5 mph83%30.16 "HgN/A
6:00 AM46 °FCool.6 mph88%30.16 "HgN/A
5:00 AM47 °FFog.3 mph87%30.17 "Hg6 mi
2:00 AM47 °FFog.2 mph87%30.18 "Hg6 mi
1:00 AM48 °FCool.3 mph85%30.18 "HgN/A
12:00 AM48 °FCool.3 mph85%30.18 "HgN/A
11:00 PM
Mon, May 2
48 °FFog.5 mph86%30.18 "Hg6 mi
10:00 PM49 °FCool.3 mph87%30.17 "HgN/A
9:00 PM47 °FCool.No wind95%30.17 "HgN/A
8:00 PM50 °FFog.1 mph89%30.15 "Hg6 mi
7:00 PM51 °FCool.1 mph85%30.15 "HgN/A
6:00 PM52 °FCool.2 mph80%30.16 "HgN/A
Weather by CustomWeather, © 2016

See weather overviewHow to use our weather pages